KLM22P EHAM-EDDL

Flight info

Callsign KLM22P
Flight time N/A
Altitude 17000
Route ARNEM T196 TEBRO P62 PISAP PISAP1A
Aircraft A321/M-SDE3FGHIRWY/LB1

Departure

Time 2026-04-27 12:29
Airport Amsterdam Airport Schiphol (EHAM)

Arrival

Time N/A
Airport Düsseldorf Airport (EDDL)
Time Latitude Longitude Altitude Speed Heading
2026-04-27 11:58 52.30429 4.76604 -1 ft 0 kts 58°
2026-04-27 12:12 52.30420 4.76575 -1 ft 4 kts 79°
2026-04-27 12:13 52.30422 4.76534 -1 ft 4 kts 121°
2026-04-27 12:13 52.30435 4.76509 -1 ft 0 kts 147°
2026-04-27 12:16 52.30415 4.76530 -1 ft 5 kts 147°
2026-04-27 12:17 52.30374 4.76572 -1 ft 8 kts 150°
2026-04-27 12:17 52.30313 4.76559 -1 ft 10 kts 221°
2026-04-27 12:17 52.30267 4.76452 -1 ft 12 kts 237°
2026-04-27 12:17 52.30218 4.76328 -1 ft 14 kts 237°
2026-04-27 12:18 52.30165 4.76191 -1 ft 15 kts 239°
2026-04-27 12:18 52.30112 4.76049 -1 ft 15 kts 239°
2026-04-27 12:18 52.30058 4.75903 -1 ft 15 kts 239°
2026-04-27 12:18 52.30002 4.75752 -1 ft 16 kts 237°
2026-04-27 12:19 52.29942 4.75599 -1 ft 16 kts 237°
2026-04-27 12:19 52.29881 4.75441 -1 ft 17 kts 237°
2026-04-27 12:19 52.29829 4.75272 -1 ft 17 kts 264°
2026-04-27 12:19 52.29884 4.75114 -1 ft 16 kts 310°
2026-04-27 12:20 52.29960 4.74970 -1 ft 17 kts 311°
2026-04-27 12:20 52.30050 4.74803 0 ft 22 kts 311°
2026-04-27 12:20 52.30152 4.74616 10 ft 22 kts 312°
2026-04-27 12:20 52.30265 4.74411 10 ft 25 kts 312°
2026-04-27 12:21 52.30364 4.74216 -1 ft 16 kts 314°
2026-04-27 12:21 52.30424 4.74123 -1 ft 10 kts 319°
2026-04-27 12:21 52.30477 4.74064 -1 ft 11 kts 341°
2026-04-27 12:21 52.30576 4.74061 -1 ft 18 kts
2026-04-27 12:22 52.30737 4.74079 -1 ft 28 kts
2026-04-27 12:22 52.30963 4.74103 -1 ft 37 kts
2026-04-27 12:22 52.31230 4.74126 -1 ft 39 kts
2026-04-27 12:22 52.31494 4.74149 -1 ft 37 kts
2026-04-27 12:23 52.31749 4.74171 -1 ft 36 kts
2026-04-27 12:23 52.31923 4.74186 -1 ft 16 kts
2026-04-27 12:23 52.32014 4.74159 -1 ft 7 kts 314°
2026-04-27 12:23 52.32017 4.74153 -1 ft 2 kts 309°
2026-04-27 12:24 52.32035 4.74075 -2 ft 13 kts 277°
2026-04-27 12:24 52.32040 4.73897 -2 ft 18 kts 275°
2026-04-27 12:24 52.32049 4.73689 -1 ft 20 kts 274°
2026-04-27 12:24 52.32063 4.73430 -1 ft 25 kts 288°
2026-04-27 12:25 52.32190 4.73208 -1 ft 30 kts 320°
2026-04-27 12:25 52.32367 4.72965 -1 ft 35 kts 320°
2026-04-27 12:25 52.32561 4.72695 -1 ft 37 kts 319°
2026-04-27 12:25 52.32739 4.72408 -1 ft 35 kts 310°
2026-04-27 12:26 52.32899 4.72110 -1 ft 34 kts 312°
2026-04-27 12:26 52.33055 4.71823 -1 ft 33 kts 312°
2026-04-27 12:26 52.33147 4.71585 -1 ft 21 kts 269°
2026-04-27 12:26 52.33075 4.71421 -1 ft 17 kts 218°
2026-04-27 12:27 52.32973 4.71278 -1 ft 23 kts 221°
2026-04-27 12:27 52.32861 4.71069 -1 ft 24 kts 255°
2026-04-27 12:27 52.32913 4.70885 -2 ft 12 kts 356°
2026-04-27 12:27 52.32963 4.70902 -3 ft 7 kts
2026-04-27 12:28 52.33044 4.70909 -4 ft 20 kts
2026-04-27 12:28 52.33325 4.70932 -3 ft 72 kts
2026-04-27 12:28 52.34028 4.71001 -2 ft 128 kts
2026-04-27 12:28 52.35061 4.71098 25 ft 166 kts
2026-04-27 12:29 52.36149 4.71127 804 ft 148 kts
2026-04-27 12:29 52.37195 4.71089 1394 ft 152 kts 359°
2026-04-27 12:29 52.38295 4.71170 1807 ft 164 kts
2026-04-27 12:29 52.39469 4.71313 2176 ft 177 kts
2026-04-27 12:30 52.40766 4.71438 2293 ft 202 kts
2026-04-27 12:30 52.42249 4.71759 2442 ft 229 kts 11°
2026-04-27 12:30 52.43908 4.72439 2619 ft 255 kts 25°
2026-04-27 12:30 52.45322 4.74078 3669 ft 248 kts 47°
2026-04-27 12:31 52.46264 4.76424 4586 ft 250 kts 62°
2026-04-27 12:31 52.47065 4.79065 5101 ft 265 kts 62°
2026-04-27 12:31 52.47879 4.81775 5946 ft 265 kts 62°
2026-04-27 12:31 52.48517 4.84617 6757 ft 270 kts 78°
2026-04-27 12:32 52.48528 4.87722 7444 ft 277 kts 99°
2026-04-27 12:32 52.47859 4.90706 8172 ft 282 kts 121°
2026-04-27 12:32 52.46659 4.93268 8932 ft 285 kts 134°
2026-04-27 12:32 52.45174 4.95376 9670 ft 287 kts 146°
2026-04-27 12:33 52.43436 4.96989 10378 ft 290 kts 156°
2026-04-27 12:33 52.41591 4.98601 10605 ft 313 kts 147°
2026-04-27 12:33 52.39780 5.00810 10742 ft 336 kts 142°
2026-04-27 12:33 52.37925 5.03332 10861 ft 357 kts 141°
2026-04-27 12:34 52.35991 5.06042 11091 ft 373 kts 137°
2026-04-27 12:34 52.34301 5.09306 11663 ft 379 kts 123°
2026-04-27 12:34 52.33080 5.13151 12303 ft 383 kts 116°
2026-04-27 12:34 52.31922 5.17084 12965 ft 386 kts 116°
2026-04-27 12:35 52.30758 5.21057 13602 ft 389 kts 116°
2026-04-27 12:35 52.29598 5.25015 14201 ft 393 kts 117°
2026-04-27 12:35 52.28414 5.29071 14726 ft 398 kts 117°
2026-04-27 12:35 52.27218 5.33170 15241 ft 402 kts 117°
2026-04-27 12:36 52.26007 5.37309 15755 ft 406 kts 117°
2026-04-27 12:36 52.24780 5.41485 16258 ft 410 kts 117°
2026-04-27 12:36 52.23538 5.45701 16738 ft 414 kts 117°
2026-04-27 12:36 52.22282 5.49961 17165 ft 419 kts 117°
2026-04-27 12:37 52.21025 5.54222 17267 ft 424 kts 117°
2026-04-27 12:37 52.19738 5.58574 17297 ft 439 kts 117°
2026-04-27 12:37 52.18398 5.63089 17287 ft 445 kts 117°
2026-04-27 12:37 52.17046 5.67631 17287 ft 446 kts 117°
2026-04-27 12:38 52.15691 5.72180 17273 ft 446 kts 117°
2026-04-27 12:38 52.14337 5.76727 17260 ft 446 kts 117°
2026-04-27 12:38 52.12979 5.81276 17281 ft 448 kts 117°
2026-04-27 12:38 52.11617 5.85821 17274 ft 448 kts 117°
2026-04-27 12:39 52.10249 5.90387 17274 ft 448 kts 117°
2026-04-27 12:39 52.08882 5.94935 17274 ft 449 kts 117°
2026-04-27 12:39 52.07521 5.99454 17267 ft 436 kts 117°
2026-04-27 12:39 52.06207 6.03813 17275 ft 426 kts 117°
2026-04-27 12:40 52.04926 6.08056 16855 ft 423 kts 117°
2026-04-27 12:40 52.03611 6.12397 15640 ft 434 kts 117°
2026-04-27 12:40 52.02265 6.16812 14768 ft 436 kts 117°
2026-04-27 12:40 52.00927 6.21192 14296 ft 427 kts 117°
2026-04-27 12:41 51.99633 6.25436 14254 ft 415 kts 117°
2026-04-27 12:41 51.98355 6.29622 14270 ft 413 kts 117°
2026-04-27 12:41 51.97083 6.33787 14277 ft 413 kts 117°
2026-04-27 12:41 51.95810 6.37959 14275 ft 413 kts 117°
2026-04-27 12:42 51.94530 6.42143 14281 ft 415 kts 117°
2026-04-27 12:42 51.93261 6.46272 14283 ft 415 kts 117°
2026-04-27 12:42 51.91950 6.50437 14278 ft 415 kts 121°
2026-04-27 12:42 51.90304 6.54254 14265 ft 413 kts 132°
2026-04-27 12:43 51.88270 6.57509 14277 ft 410 kts 142°
2026-04-27 12:43 51.85923 6.60103 14264 ft 408 kts 153°
2026-04-27 12:43 51.83350 6.61961 14267 ft 404 kts 163°
2026-04-27 12:43 51.80678 6.63343 14123 ft 402 kts 165°
2026-04-27 12:44 51.77999 6.64348 13679 ft 390 kts 173°
2026-04-27 12:44 51.75365 6.64939 13180 ft 385 kts 174°
2026-04-27 12:44 51.72738 6.65521 12675 ft 379 kts 174°
2026-04-27 12:44 51.70111 6.66110 12164 ft 385 kts 173°
2026-04-27 12:45 51.67448 6.66705 11693 ft 387 kts 173°
2026-04-27 12:45 51.64786 6.67298 11218 ft 385 kts 173°
2026-04-27 12:45 51.62152 6.68050 10744 ft 384 kts 165°
2026-04-27 12:45 51.59603 6.69328 10278 ft 382 kts 164°
2026-04-27 12:46 51.57083 6.70601 9783 ft 377 kts 164°
2026-04-27 12:46 51.54603 6.71852 9281 ft 371 kts 163°
2026-04-27 12:46 51.52165 6.73083 8779 ft 362 kts 163°
2026-04-27 12:46 51.49877 6.74240 8294 ft 337 kts 163°
2026-04-27 12:47 51.47697 6.75202 7831 ft 314 kts 171°
2026-04-27 12:47 51.45587 6.75472 7355 ft 296 kts 182°
2026-04-27 12:47 51.43598 6.75168 6889 ft 280 kts 187°
2026-04-27 12:47 51.41706 6.74794 6407 ft 268 kts 187°
2026-04-27 12:48 51.39850 6.74411 5924 ft 272 kts 187°
2026-04-27 12:48 51.37960 6.74001 5443 ft 275 kts 187°
2026-04-27 12:48 51.36058 6.73577 4961 ft 277 kts 185°
2026-04-27 12:48 51.34153 6.73789 4460 ft 276 kts 166°
2026-04-27 12:49 51.32284 6.74384 4016 ft 278 kts 170°
2026-04-27 12:49 51.30408 6.74276 3950 ft 267 kts 194°
2026-04-27 12:49 51.28741 6.73003 3952 ft 267 kts 218°
2026-04-27 12:49 51.27525 6.70787 3957 ft 267 kts 241°
2026-04-27 12:50 51.26859 6.68032 3853 ft 266 kts 252°
2026-04-27 12:50 51.26304 6.65199 3728 ft 268 kts 252°
2026-04-27 12:50 51.25745 6.62363 3599 ft 268 kts 253°
2026-04-27 12:50 51.25181 6.59533 3470 ft 267 kts 252°
2026-04-27 12:51 51.24616 6.56706 3334 ft 266 kts 253°
2026-04-27 12:51 51.24062 6.53930 3204 ft 266 kts 252°
2026-04-27 12:51 51.23507 6.51149 3078 ft 259 kts 252°
2026-04-27 12:51 51.22965 6.48477 2961 ft 249 kts 250°
2026-04-27 12:52 51.22007 6.46315 2953 ft 233 kts 217°
2026-04-27 12:52 51.20590 6.45278 2964 ft 221 kts 188°
2026-04-27 12:52 51.19089 6.45429 2953 ft 215 kts 159°
2026-04-27 12:52 51.17844 6.46592 2959 ft 199 kts 132°